Find Starlink 37077

NORAD ID: 68169 Int'l Des: 2026-050 Owner: SPXS Country: US Constellation: starlink operational
LEOCIRCULAR

リアルタイム位置

3D地球を読み込み中...

Starlink 37077について

説明を読み込み中...

次回通過

Passes for default location (London). Set your location on the main map for personalized predictions.

高度履歴

Loading altitude history...

軌道要素

1 68169U 26050C 26121.12969566 .00058542 00000-0 14999-2 0 9997
2 68169 53.1605 24.4795 0001160 79.6533 280.4603 15.38844892 8692
Epoch: May 1, 2026 • Age: 6 hours

現在のステータス

高度 451.6 km
速度 7.65 km/s
衛星直下点 36.21°N, 53.66°E
打ち上げ日 Mar 14, 2026
運用期間 0.1 years
タイプ internet

技術仕様

分類 Payload
質量 575.00 kg
乾燥質量 530.00 kg
総質量 575.00 kg
長さ 0.30 m
直径 4.10 m
スパン 29.00 m
形状 Box + pan
製造者 SPXS
バスタイプ Starlink V2MO
フェーズステータス In Orbit
所有者/国 SPXS/US

Most Searched